Weather History for KDNL - January, 2014

Change the Weather History Date:

Saturday, January 18, 2014

  Actual Average Record
Temperature  
Mean Temperature 39 °F -  
Max Temperature 46 °F 53 °F 71 °F (1999)
Min Temperature 31 °F 36 °F 19 °F (2003)
Degree Days  
Heating Degree Days 26    
Month to date heating degree days 385  
Moisture  
Dew Point 14 °F    
Average Humidity 38    
Maximum Humidity 49    
Minimum Humidity 23    
Precipitation  
Precipitation 0.00 in - - ()
Month to date precipitation 2.33  
Year to date precipitation 2.33  
Sea Level Pressure  
Sea Level Pressure 30.11 in    
Wind  
Wind Speed 7 mph (West)    
Max Wind Speed 17 mph    
Max Gust Speed 28 mph    
Visibility 10 miles    
Events      
Averages and records for this station are not official NWS values.
T = Trace of Precipitation, MM = Missing Value Source: NWS Daily Summary

Daily Weather History Graph

Daily Weather History Graph

Search for Another Location

Airport or City:

Trip Planner

Search our weather history database for the weather conditions in past years. The results will help you decide how hot, cold, wet, or windy it might be!

Date:

Astronomy

Jan. 18, 2014 Rise Set
Actual Time 7:31 AM EST 5:46 PM EST
Civil Twilight 7:04 AM EST 6:12 PM EST
Nautical Twilight 6:34 AM EST 6:43 PM EST
Astronomical Twilight 6:04 AM EST 7:13 PM EST
Moon 8:16 PM EST (1/18) 8:39 AM EST (1/18)
Length of Visible Light 11h 08m
Length of Day
10h 14m
Waning Gibbous, 94% of the Moon is Illuminated
Jan 18
Waning Gibbous
Jan 24
Last Quarter
Jan 30
New
Feb 6
First Quarter
Feb 14
Full

Hourly Weather History & Observations

Time (EST) Temp. Windchill Dew Point Humidity Pressure Visibility Wind Dir Wind Speed Gust Speed Precip Events Conditions
12:53 AM 41.0 °F 34.7 °F 19.0 °F 41% 30.02 in 10.0 mi WNW 10.4 mph 21.9 mph N/A   Clear
1:53 AM 37.9 °F 32.7 °F 19.0 °F 47% 30.04 in 10.0 mi WNW 6.9 mph - N/A   Clear
2:53 AM 36.0 °F 27.5 °F 12.9 °F 39% 30.07 in 10.0 mi WNW 12.7 mph 24.2 mph N/A   Clear
3:53 AM 34.0 °F 26.6 °F 12.9 °F 42% 30.08 in 10.0 mi West 9.2 mph 20.7 mph N/A   Clear
4:53 AM 33.1 °F 25.5 °F 12.9 °F 43% 30.08 in 10.0 mi West 9.2 mph - N/A   Clear
5:53 AM 30.9 °F 26.2 °F 14.0 °F 50% 30.10 in 10.0 mi West 4.6 mph - N/A   Clear
6:53 AM 30.9 °F 23.5 °F 14.0 °F 50% 30.12 in 10.0 mi West 8.1 mph - N/A   Clear
7:53 AM 30.9 °F 26.2 °F 14.0 °F 50% 30.14 in 10.0 mi Variable 4.6 mph - N/A   Clear
8:53 AM 33.1 °F 26.1 °F 14.0 °F 46% 30.16 in 10.0 mi WNW 8.1 mph - N/A   Clear
9:53 AM 35.1 °F 27.4 °F 14.0 °F 42% 30.19 in 10.0 mi WNW 10.4 mph - N/A   Clear
10:53 AM 37.9 °F 30.9 °F 12.9 °F 36% 30.19 in 10.0 mi West 10.4 mph 20.7 mph N/A   Clear
11:53 AM 41.0 °F 34.7 °F 12.9 °F 32% 30.18 in 10.0 mi West 10.4 mph 21.9 mph N/A   Clear
12:53 PM 43.0 °F 38.2 °F 12.9 °F 30% 30.14 in 10.0 mi West 8.1 mph - N/A   Clear
1:53 PM 45.0 °F 41.2 °F 12.9 °F 27% 30.11 in 10.0 mi Variable 6.9 mph 23.0 mph N/A   Clear
2:53 PM 45.0 °F 40.6 °F 12.0 °F 26% 30.10 in 10.0 mi WSW 8.1 mph 17.3 mph N/A   Clear
3:53 PM 46.0 °F 41.4 °F 10.9 °F 24% 30.10 in 10.0 mi WNW 9.2 mph - N/A   Clear
4:53 PM 45.0 °F 41.2 °F 10.9 °F 25% 30.10 in 10.0 mi WSW 6.9 mph - N/A   Clear
5:53 PM 43.0 °F 41.3 °F 12.0 °F 28% 30.10 in 10.0 mi Variable 3.5 mph - N/A   Clear
6:53 PM 41.0 °F - 12.9 °F 32% 30.10 in 10.0 mi Calm Calm - N/A   Clear
7:53 PM 39.0 °F 35.7 °F 14.0 °F 36% 30.10 in 10.0 mi SW 4.6 mph - N/A   Clear
8:53 PM 39.0 °F 34.8 °F 15.1 °F 38% 30.09 in 10.0 mi SSW 5.8 mph - N/A   Clear
9:53 PM 37.0 °F 31.6 °F 16.0 °F 42% 30.07 in 10.0 mi South 6.9 mph - N/A   Clear
10:53 PM 37.0 °F 32.4 °F 16.0 °F 42% 30.07 in 10.0 mi SSW 5.8 mph - N/A   Clear
11:53 PM 37.0 °F 31.6 °F 16.0 °F 42% 30.08 in 10.0 mi SSW 6.9 mph - N/A   Clear